Location: Bois de la Silve
(44.4667°N, 6.7833°E)
Time: 10:50:46
(UTC+00:00)

Cosmos 1447 Rocket - Pass Details

Date: 14 July 2020
Orbit: 955 x 995 km, 82.9° (Epoch: 05 August)

Event Time Altitude Azimuth Distance (km) Brightness Sun altitude
Rises 00:12:33 0° 352° (N) 3,701 8.8 -23.4°
Reaches altitude 10° 00:15:04 10° 353° (N) 2,754 7.9 -23.4°
Maximum altitude 00:21:25 84° 82° (E) 1,003 4.5 -23.2°
Enters shadow 00:23:37 44° 167° (SSE) 1,342 4.8 -23.1°
